Location: Pulvis Stellarum Observatory
(41.6962°N, 71.4263°W)
Time: 22:21:44
(UTC-04:00)

Cosmos 1758 - Visible Passes

Search period start: 01 October 2014 00:00
Search period end: 11 October 2014 00:00
Orbit: 550 x 574 km, 82.5° (Epoch: 01 October)

Date Brightness Start Highest point End Pass type
(mag) Time Alt. Az. Time Alt. Az. Time Alt. Az.
01 Oct 6.0 05:04:04 10° NNE 05:07:21 23° ENE 05:10:36 10° SE visible
01 Oct 4.3 19:02:07 10° SSW 19:06:10 55° W 19:10:16 10° N visible
02 Oct 5.6 05:03:31 10° NNE 05:07:02 27° ENE 05:10:31 10° SE visible
02 Oct 4.8 19:01:51 10° SSW 19:05:49 44° WNW 19:09:49 10° N visible
03 Oct 5.2 05:02:59 10° N 05:06:42 33° ENE 05:10:22 10° SE visible
03 Oct 5.2 19:01:38 10° SW 19:05:28 36° WNW 19:09:20 10° N visible
04 Oct 4.8 05:02:29 10° N 05:06:21 40° ENE 05:10:09 10° SSE visible
04 Oct 5.6 19:01:27 10° SW 19:05:07 30° WNW 19:08:49 10° NNW visible
05 Oct 4.3 05:02:01 10° N 05:05:59 49° E 05:09:53 10° SSE visible
05 Oct 6.0 19:01:19 10° SW 19:04:46 25° WNW 19:08:15 10° NNW visible
06 Oct 3.8 05:01:33 10° N 05:05:35 61° E 05:09:34 10° SSE visible
06 Oct 6.3 19:01:14 10° SW 19:04:25 21° WNW 19:07:38 10° NNW visible
07 Oct 3.4 05:01:07 10° N 05:05:11 75° E 05:09:12 10° SSE visible
07 Oct 6.4 19:01:14 10° WSW 19:04:05 18° WNW 19:06:56 10° NNW visible
08 Oct 3.2 05:00:42 10° N 05:04:46 88° W 05:08:47 10° S visible
08 Oct 6.5 19:01:20 10° WSW 19:03:44 15° WNW 19:06:09 10° NW visible
09 Oct 3.2 05:00:17 10° NNW 05:04:20 72° W 05:08:20 10° S visible
09 Oct 6.7 19:01:36 10° W 19:03:24 13° WNW 19:05:12 10° NW visible
10 Oct 5.2 04:59:54 10° NNW 05:01:08 19° NNW 05:01:08 19° NNW visible
10 Oct 7.0 19:02:25 10° WNW 19:03:04 10° WNW 19:03:43 10° WNW visible
